DIAMANT DEB, 2685

Orbit data source: Space-Track

DIAMANT DEB, 2685 is space debris in LEO originally from a launch on Wed, 15 Feb 1967 UTC launched from the Hamma Guira Space Track Range (HGSTR). Debris objects in space refer to the collection of defunct objects orbiting the Earth. Examples of debris include non-operational satellites, rocket bodies, and fragments generated from explosions, collisions, or faulty payload assembly.

Loading next visibility...
DIAMANT DEB details
Identifier
2685, 1967-014F
Orbit
LEO
Last TLE update1 day ago
Origin
Flag of FRCNES (FR)
ManufacturerUnknown
MissionSpacecraft
Bus & MotorUnknown
MassUnknown
Launch date (UTC)
1967-02-15 (58 years ago)
Launch vehicleUnknown
Launch site
Hamma Guira Space Track Range (HGSTR)
Object type
Payload
Rocket body
Debris
Shape & HBRUnknown
Radar Cross SectionSmall (<0.1 m²)

Expand to show TLE details & history

TLE from 1 day ago
0 DIAMANT DEB
1  2685U 67014F   25042.55026090  .00008503  00000-0  15243-2 0  9992
2  2685  38.9307 139.7079 0368760 342.4100  16.4166 14.30838233897545
Epoch: 2025-02-11T13:12Z
Definitive object data (Epoch: 2025-02-11T13:12:22.541Z)
Latitude-0.00005°
Longitude159.76045°
Altitude535.634 km
Speed7.729 km/s
True Right ascension09h 18m 49s
True Declination0° 00' 00"
Sunlit
Object was in full shadow at TLE epoch
Visualization TLE readout
Latitude-7.26263°
Longitude145.32702°
Altitude525.279 km
Speed7.741 km/s
Apparent Right ascension06h 53m 39s
Apparent Declination-25° 06' 23"
Sunlit
Object is in full shadow
Visualization observer readout
Local Sidereal Time16:48:12
Azimuth289.91° WNW
Elevation-59.916°
Doppler factor1
Orbital elements
Apogee altitude1,055.831 km
Perigee altitude527.06 km
Semi-major axis7,169.583 km
Eccentricity0.036876
Inclination38.9307°
RAAN139.7079°
Arg. of periapsis342.41°
True anomaly17.6659°
Mean anomaly16.4166°
Eccentric anomaly17.03559°
Mean motion3.57522 °/min
BSTAR0.0015243
Orbital period100.69 mins
Loading maneuver chart data...
Loading historical data...
Loading historical data...
Loading historical data...
Loading historical data...
Loading historical data...
Loading historical data...
Loading historical data...

DIAMANT DEB Visibility forecast

Observer location: undefined°, undefined

Span
Click to sort rows by Start time (UTC) header in descending order
Start Az.
Max El. time (UTC)
Max El. Az.
Max El.
End time (UTC)
End Az.
11 mins2025-02-12 14:47:08.738Z271.914° WNW2025-02-12 14:52:08.738Z202.825° SW36.492°2025-02-12 14:58:08.738Z131.874° SE
7 mins2025-02-12 16:35:08.738Z246.357° WSW2025-02-12 16:38:08.738Z214.981° SW17.544°2025-02-12 16:42:08.738Z177.902° S
6 mins2025-02-13 08:58:08.738Z191.717° SSW2025-02-13 09:00:08.738Z157.762° S22.777°2025-02-13 09:04:08.738Z97.483° ESE
8 mins2025-02-13 10:43:08.738Z243.285° WSW2025-02-13 10:46:08.738Z171.31° S42.498°2025-02-13 10:51:08.738Z86.173° E
9 mins2025-02-13 12:29:08.738Z268.513° W2025-02-13 12:32:08.738Z225.353° WSW44.252°2025-02-13 12:38:08.738Z99.086° ESE
|